This is the latest recevied weather packets stored in our database for station/object WB6ANP. If no packets are shown the sender has not sent any weather packets the latest 10 day(s).
| Time | Temp. | Humidity | Pressure | Rain* | Wind** | Luminosity | Snow |
|---|---|---|---|---|---|---|---|
| 1777729912 | 15.56° C | 73% | 1022 hPa | 0 mm | - | 321 W/m² | - |
| 1777729608 | 15.56° C | 75% | 1021.9 hPa | 0 mm | - | 302 W/m² | - |
| 1777729305 | 15.56° C | 76% | 1021.8 hPa | 0 mm | - | 284 W/m² | - |
| 1777729002 | 15° C | 76% | 1021.8 hPa | 0 mm | - | 266 W/m² | - |
| 1777728699 | 15° C | 76% | 1021.5 hPa | 0 mm | - | 246 W/m² | - |
| 1777728395 | 14.44° C | 77% | 1021.7 hPa | 0 mm | - | 231 W/m² | - |
| 1777728093 | 14.44° C | 78% | 1021.7 hPa | 0 mm | - | 206 W/m² | - |
| 1777727790 | 13.89° C | 78% | 1021.7 hPa | 0 mm | - | 176 W/m² | - |
| 1777727487 | 13.89° C | 80% | 1021.5 hPa | 0 mm | - | 185 W/m² | - |
| 1777727184 | 13.33° C | 81% | 1021.4 hPa | 0 mm | - | 192 W/m² | - |
| 1777726882 | 13.33° C | 81% | 1021.3 hPa | 0 mm | - | 187 W/m² | - |
| 1777726578 | 13.33° C | 83% | 1021.3 hPa | 0 mm | - | 176 W/m² | - |
| 1777726276 | 12.78° C | 83% | 1021.2 hPa | 0 mm | - | 157 W/m² | - |
| 1777725972 | 12.78° C | 84% | 1021.3 hPa | 0 mm | - | 138 W/m² | - |
| 1777725669 | 12.78° C | 84% | 1021.3 hPa | 0 mm | - | 119 W/m² | - |
| 1777725367 | 12.78° C | 84% | 1021.1 hPa | 0 mm | - | 100 W/m² | - |
| 1777725064 | 12.22° C | 85% | 1021.2 hPa | 0 mm | - | 82 W/m² | - |
| 1777724760 | 12.22° C | 85% | 1021.2 hPa | 0 mm | - | 70 W/m² | - |
| 1777724457 | 12.22° C | 85% | 1021 hPa | 0 mm | - | 52 W/m² | - |
| 1777724155 | 12.22° C | 85% | 1021 hPa | 0 mm | - | 41 W/m² | - |
| 1777723853 | 12.22° C | 86% | 1021 hPa | 0 mm | - | 33 W/m² | - |
| 1777723548 | 11.67° C | 86% | 1021.1 hPa | 0 mm | - | 25 W/m² | - |
| 1777723246 | 11.67° C | 86% | 1020.7 hPa | 0 mm | - | 19 W/m² | - |
| 1777722944 | 11.67° C | 86% | 1020.8 hPa | 0 mm | - | 13 W/m² | - |
| 1777722639 | 11.67° C | 86% | 1020.7 hPa | 0 mm | - | 8 W/m² | - |
* Rain latest hour (hover to see other rain measurements)
** Current wind speed in m/s (hover to see current wind gust speed)